Vorticity
2 2 2 2 2 3 4 6 7 7 8 7 7 7 6 6 5 4 4 5 5 6 6 6 6 5 4 3 2 2 2 2 2 3 3 4 4 5 6 7 7 8 9 9 9 9 9 9 9 9 9 9 8 8 8 8 8 8 8 8 8 9 9 10 10 10 10 10 10 9 9 9 9 9 9 10 10 10 10 10 10 10 10 10 10 10 9 9 9 9 9 9 9 9 8 8 8 8 8 8 8 8 8
3 2 2 2 3 4 6 7 8 9 9 8 8 7 5 4 4 4 4 5 5 6 6 6 6 6 4 3 2 2 2 2 2 2 2 3 4 4 6 7 8 8 8 8 8 8 8 9 9 10 10 9 9 9 9 8 8 9 9 9 9 9 10 10 10 9 9 8 8 8 8 8 9 9 10 10 10 11 11 11 10 10 10 10 9 9 8 8 8 8 9 9 8 8 9 9 8 8 8 9 8 8 8
3 2 2 2 3 5 7 9 10 10 10 9 8 6 4 3 3 3 4 4 5 5 5 5 6 5 4 3 2 2 2 2 2 2 2 2 4 5 6 7 8 8 8 7 7 8 9 9 10 10 10 10 10 10 10 10 10 9 9 9 9 9 8 8 7 7 6 6 6 6 6 7 8 8 9 10 10 10 10 10 10 10 9 9 8 8 8 8 8 8 8 8 8 8 9 10 9 9 8 8 8 8 8
3 3 3 3 5 6 9 10 11 11 10 8 7 5 4 3 2 2 4 4 5 5 4 5 5 4 3 2 2 1 1 1 1 1 2 2 4 5 7 7 8 7 7 7 8 8 9 9 10 10 10 10 10 10 10 10 10 9 8 8 8 7 7 6 6 5 5 4 4 4 4 5 5 6 7 7 8 8 8 8 9 9 8 8 8 7 7 7 7 7 7 8 8 8 8 9 10 11 9 8 8 8 8
3 3 4 5 6 9 11 12 12 11 9 7 5 4 3 2 2 3 4 4 5 4 5 4 4 3 2 2 1 1 1 1 1 2 2 3 5 6 8 8 8 7 7 7 8 8 8 8 8 8 9 9 9 8 8 8 8 8 7 7 7 6 6 6 6 5 5 5 5 4 4 4 4 4 4 4 5 5 6 6 7 7 7 7 7 7 6 6 6 6 6 6 7 8 7 7 8 11 10 9 8 9 8
3 4 5 7 9 11 12 12 12 10 8 6 4 3 2 2 3 4 5 5 5 4 4 4 2 2 1 1 1 1 1 1 2 2 3 5 6 8 8 8 8 8 8 7 8 9 9 8 8 8 8 8 8 8 8 8 8 7 7 7 7 6 6 6 6 6 6 6 6 6 6 6 5 5 4 4 4 4 4 4 4 5 5 6 6 6 6 6 5 5 5 6 6 7 8 7 7 8 10 10 10 10 9
4 5 7 8 10 12 12 12 10 8 7 5 4 4 4 4 5 5 5 5 5 4 3 2 1 0 0 1 1 2 2 2 2 3 5 6 7 8 8 8 8 8 8 8 8 8 8 9 8 9 9 9 10 10 10 10 10 9 8 8 7 7 7 7 6 6 7 7 8 8 8 8 8 8 8 7 6 6 5 5 4 4 4 4 5 5 5 5 4 4 4 4 5 5 7 7 7 7 9 11 11 10 10
6 7 8 10 10 11 11 10 9 7 6 6 5 5 5 5 5 5 5 5 4 4 2 1 1 0 1 2 2 2 3 3 4 4 6 7 8 8 9 9 9 9 9 9 9 8 9 9 9 10 10 10 10 11 11 11 11 10 9 8 8 7 8 8 8 8 8 8 9 9 9 10 10 9 9 9 9 9 8 8 7 7 6 6 6 6 6 5 4 4 4 4 4 4 5 7 8 8 9 11 12 11 11
8 8 8 8 9 8 8 7 7 7 6 6 5 4 4 4 4 4 4 4 4 3 2 2 1 2 2 3 3 4 4 4 5 6 7 8 9 10 10 10 10 10 10 10 10 10 9 9 9 9 9 9 9 9 10 9 9 8 7 7 6 6 7 7 7 8 8 8 9 9 9 9 9 9 9 9 9 9 9 9 9 9 9 9 9 9 8 7 6 5 5 5 5 6 6 7 8 10 10 11 12 12 12
7 7 6 6 5 6 6 6 6 6 5 4 3 3 3 3 3 4 4 4 4 3 3 2 2 3 4 4 4 4 4 5 6 7 8 9 9 10 10 9 9 9 9 9 8 8 8 8 8 8 8 8 7 7 7 7 6 6 5 5 5 5 5 6 6 6 6 7 7 8 8 8 7 8 8 8 8 8 8 8 8 8 9 9 9 9 9 8 8 8 8 8 8 8 8 9 10 11 12 12 12 13 13
6 5 4 4 4 5 6 6 5 5 3 3 2 3 3 3 4 4 4 4 3 3 3 3 4 4 5 5 5 5 5 6 7 8 9 9 9 9 8 8 8 7 7 7 7 7 7 7 7 7 7 6 6 5 5 5 4 4 4 4 4 4 4 4 4 4 4 4 4 5 5 5 5 6 6 7 7 8 8 8 7 8 8 8 8 8 8 9 10 11 11 11 11 12 12 12 12 12 14 13 13 14 15
4 4 4 5 5 6 6 5 5 4 3 3 4 4 4 4 4 4 4 3 3 3 4 5 6 6 6 6 5 5 6 6 7 8 8 8 8 7 7 7 7 6 6 7 7 7 7 6 6 6 6 6 5 4 4 4 4 4 4 4 4 3 3 2 2 2 2 2 2 2 2 2 3 4 5 6 7 8 8 9 9 10 10 10 9 9 10 10 10 11 12 12 12 13 14 15 15 14 14 15 16 16 17
5 5 5 6 6 6 6 5 4 4 4 4 4 4 4 4 4 4 3 3 3 4 6 6 7 7 6 6 6 6 6 6 6 6 7 7 6 6 6 6 6 6 6 6 6 6 6 7 7 6 6 5 4 4 4 4 4 4 3 3 3 3 2 2 2 2 2 2 2 2 2 2 2 3 4 5 6 7 8 10 11 12 13 13 13 13 12 12 11 11 12 12 13 14 15 16 16 16 17 17 17 16 16
6 6 6 6 6 5 5 4 4 4 5 4 4 4 4 4 3 3 3 4 5 6 7 7 7 7 7 6 6 6 5 5 5 5 6 6 6 6 6 6 6 6 6 6 6 5 5 6 6 5 5 5 4 4 4 4 4 3 3 3 3 3 3 2 2 2 3 3 3 3 3 3 4 5 6 6 6 7 7 8 10 11 13 14 14 14 13 13 13 13 13 13 14 15 15 16 17 18 18 18 17 16 14
6 6 6 6 5 4 4 4 4 5 5 5 4 4 4 3 3 4 5 6 7 7 7 7 7 7 7 6 5 5 5 5 5 5 5 6 6 6 6 6 6 6 6 7 6 4 4 4 5 5 5 4 4 4 4 4 4 4 3 3 3 3 3 3 3 3 3 3 4 4 4 5 5 6 7 7 8 8 8 8 9 9 11 12 13 14 14 15 15 15 14 14 15 16 16 17 17 18 18 18 17 16 14
6 6 5 4 3 3 3 4 4 5 5 5 4 4 3 4 4 6 7 7 7 7 7 7 7 6 5 5 4 4 5 5 5 5 5 6 6 6 6 6 6 6 7 7 6 4 4 4 4 4 4 4 4 4 4 4 4 4 4 3 3 3 3 3 3 3 3 4 4 5 5 5 6 7 7 8 9 10 10 10 10 10 10 11 12 13 14 15 16 16 16 16 16 16 17 17 17 17 17 16 15 14 14
5 5 4 3 3 3 3 3 4 4 5 4 4 4 4 5 6 7 7 7 7 7 7 6 5 4 3 4 4 5 5 5 5 5 6 6 6 6 6 6 6 7 7 6 5 3 3 3 3 3 4 4 4 4 4 4 4 4 4 4 4 4 4 4 4 4 4 4 5 5 6 6 6 7 8 8 9 10 10 10 10 10 11 12 12 13 14 14 15 15 16 16 16 17 17 17 17 16 15 14 13 13 13
5 5 4 4 4 4 4 4 4 4 4 4 4 5 6 6 7 7 7 7 7 7 6 5 4 3 3 4 5 6 6 6 6 6 6 6 6 6 6 6 7 8 7 5 3 2 2 2 3 3 3 4 4 4 4 4 4 4 4 4 4 4 4 4 4 5 5 5 6 6 6 7 7 8 8 8 8 8 9 9 9 10 10 11 12 13 14 14 14 15 15 15 16 16 16 16 15 14 13 12 12 12 11
5 5 6 6 5 5 4 3 3 3 4 4 5 6 6 7 7 7 7 7 6 5 4 4 4 4 4 5 6 6 6 6 6 6 6 6 6 6 6 7 8 9 6 3 1 0 1 2 3 4 4 4 4 4 4 4 4 4 4 4 4 5 5 5 5 5 6 6 6 6 7 7 8 8 9 8 8 8 7 8 8 9 10 11 12 13 13 14 14 14 15 15 15 15 15 14 14 13 12 12 11 11 10
5 6 6 6 6 5 4 4 4 4 5 6 6 6 6 7 7 7 6 5 4 3 4 4 4 4 5 6 6 6 6 6 6 6 6 6 6 6 7 9 10 7 4 0 -1 -0 1 3 4 5 5 5 5 5 5 4 4 5 5 5 6 6 6 5 5 6 6 6 7 7 8 8 8 9 9 8 8 8 7 7 8 8 9 10 11 12 13 13 14 14 15 15 14 14 13 13 13 12 12 11 11 10 10
5 6 6 5 5 5 5 5 6 6 6 7 7 6 6 6 6 6 5 4 3 3 4 5 5 5 5 6 6 6 6 6 6 6 5 4 4 5 8 9 8 5 0 -3 -3 -0 2 4 5 6 6 6 6 5 5 5 6 6 6 6 7 7 6 6 6 6 6 6 7 7 8 8 8 8 9 9 8 8 8 8 9 9 10 10 11 12 13 13 14 14 14 14 14 13 13 12 12 12 11 11 10 10 10
5 6 5 5 5 6 6 6 7 7 7 7 6 6 6 6 6 5 4 4 4 5 6 6 6 5 6 6 7 7 6 6 6 6 5 4 3 4 6 7 6 2 -2 -4 -3 -0 2 4 5 6 7 7 6 6 6 6 6 6 7 7 7 7 7 6 6 6 6 6 7 7 7 8 8 8 9 9 9 10 10 10 10 11 12 12 13 13 13 13 14 14 14 14 13 13 12 12 12 11 11 10 10 10 10
6 6 6 6 6 7 7 7 7 7 7 6 6 6 6 6 6 6 6 6 7 7 7 7 7 6 7 7 7 6 6 7 7 8 7 6 5 5 4 5 4 2 -2 -3 -2 -0 1 3 4 5 6 7 7 6 6 6 6 6 6 6 6 6 6 6 6 6 6 6 7 7 8 8 8 9 10 10 11 11 12 12 13 13 14 14 14 14 14 14 14 14 13 13 13 12 12 11 11 11 10 10 10 10 9
8 8 8 8 8 8 8 7 7 7 6 6 6 6 6 6 6 6 7 8 8 8 8 7 7 7 7 7 6 4 5 7 9 10 10 10 8 5 3 4 4 3 0 -1 -1 -0 0 1 2 3 5 6 7 6 6 6 6 6 6 6 6 5 6 6 6 6 6 7 7 8 8 9 10 11 11 12 13 13 14 14 15 16 16 16 16 16 16 15 14 14 13 13 12 11 11 10 10 9 9 9 9 9 8
9 9 9 8 8 8 7 7 7 6 6 6 6 6 6 6 6 7 8 8 8 8 8 8 7 7 7 6 5 4 6 8 10 10 10 9 6 2 0 2 4 5 2 0 -0 -0 -1 -1 -1 -0 2 4 6 6 6 6 5 5 5 5 5 5 5 6 6 5 6 7 7 8 9 10 11 12 13 14 15 15 16 16 16 17 17 17 17 17 17 16 14 14 13 12 11 10 10 9 9 9 9 10 9 9 8
9 8 8 8 7 7 7 7 7 6 6 6 6 6 6 6 7 7 8 8 8 8 8 8 7 7 6 5 4 5 8 9 8 6 4 2 -1 -4 -2 1 5 7 4 2 -0 -2 -3 -4 -4 -4 -1 2 5 6 6 6 5 4 4 4 4 5 5 5 5 5 5 6 7 9 10 12 13 14 15 16 16 16 16 16 16 17 17 17 17 17 16 15 14 13 11 10 9 8 8 9 9 10 10 10 10 10 10
7 7 7 7 7 7 7 7 7 7 7 7 7 7 7 7 7 8 8 8 8 8 7 7 7 6 5 4 5 7 9 8 5 2 -2 -4 -6 -5 -1 4 8 9 7 4 0 -3 -4 -5 -5 -5 -3 0 4 7 7 6 5 4 4 4 4 5 5 5 4 5 5 7 9 12 13 14 15 16 16 17 17 17 16 16 16 16 16 16 16 15 14 13 12 10 9 8 7 8 9 10 10 11 12 12 12 13 13
7 7 7 7 7 7 7 7 7 7 8 8 8 8 8 8 8 7 7 7 7 7 7 7 7 7 6 5 5 7 8 6 4 2 0 -0 -0 2 5 8 9 10 8 5 2 -2 -3 -3 -4 -5 -4 -1 3 7 8 7 6 5 4 4 5 5 4 4 4 6 8 10 12 14 16 17 17 17 17 17 17 16 16 15 15 14 14 14 13 12 11 9 8 7 6 7 8 9 11 12 12 13 13 13 13 13 13
8 8 8 7 7 7 8 8 8 8 8 8 8 8 8 8 7 7 7 7 6 6 6 7 7 7 7 6 6 10 8 7 6 6 7 7 7 8 8 8 8 8 6 4 2 -2 -3 -3 -4 -5 -4 -1 3 7 9 9 8 6 5 5 5 4 5 6 7 8 11 13 16 16 16 17 17 17 17 16 15 15 14 13 13 12 11 10 10 8 7 6 5 5 7 8 10 12 12 13 13 13 14 15 15 15 15
9 9 8 8 8 8 8 8 9 9 9 9 8 8 8 8 8 8 8 7 6 6 6 7 7 7 7 8 9 10 7 7 7 8 8 8 8 8 7 6 6 5 3 1 -2 -4 -5 -5 -4 -5 -4 0 4 8 10 10 9 8 7 6 6 6 6 7 8 11 13 14 15 16 15 15 15 16 15 14 13 13 13 13 12 12 10 9 8 7 6 6 6 7 10 12 13 13 13 13 13 14 16 17 18 18 19
9 9 9 8 8 9 9 9 9 9 9 8 8 8 8 8 8 8 7 6 6 5 6 6 6 6 6 5 4 3 3 4 5 6 6 6 6 5 4 3 2 1 -1 -3 -5 -7 -7 -6 -4 -3 -1 3 6 9 10 10 10 10 8 7 6 6 6 7 10 12 13 13 13 13 13 13 14 14 13 12 11 11 12 13 13 13 13 12 11 11 10 11 12 13 14 15 15 14 15 15 16 17 18 18 18 19 17
9 9 9 9 9 9 9 9 8 8 8 8 8 8 7 7 7 8 7 6 6 5 6 6 5 4 2 1 1 1 4 5 6 4 3 3 3 2 1 -0 -2 -3 -5 -5 -6 -6 -4 -2 -0 2 5 8 10 11 11 11 10 10 8 7 6 5 7 10 12 12 12 12 11 11 11 12 12 13 12 11 10 11 12 13 14 15 17 18 18 17 17 17 18 18 18 17 17 18 18 19 19 20 20 19 19 18 15
9 9 9 9 9 9 9 8 8 8 8 8 7 7 8 7 7 7 7 7 6 6 5 4 3 1 0 0 1 3 5 5 4 2 1 0 0 -1 -2 -3 -4 -4 -4 -3 -2 -0 1 3 5 8 10 12 13 13 12 11 11 10 8 7 7 8 11 12 12 12 11 10 10 9 10 10 12 13 13 12 12 11 11 12 14 18 21 23 23 23 22 21 21 20 20 20 20 21 21 21 22 22 21 21 21 19 17
9 9 9 9 9 9 9 8 8 7 6 6 6 6 7 7 6 7 7 7 6 4 3 2 1 0 0 1 2 4 5 4 3 2 1 1 0 -1 -2 -1 -0 1 2 3 4 6 7 8 10 12 14 16 16 15 14 13 12 10 9 9 10 12 12 12 11 11 11 10 10 9 9 10 12 14 15 14 13 12 12 13 16 20 23 25 25 25 24 23 21 21 22 22 21 21 21 21 20 20 19 18 17 15 14
8 8 8 8 8 9 8 8 8 7 6 6 5 5 5 6 6 6 6 5 4 3 2 1 0 1 2 3 4 6 7 6 6 5 5 5 4 4 4 5 6 7 8 8 9 10 11 12 14 16 18 18 17 16 16 14 13 12 12 13 13 13 12 12 12 12 12 11 11 10 11 13 15 17 17 16 14 13 14 16 19 22 25 26 26 26 24 23 22 22 22 22 21 21 21 20 19 18 17 15 14 12 11
7 8 8 8 8 8 8 8 7 6 6 5 5 5 5 5 6 6 5 4 3 2 1 1 2 5 6 7 8 9 10 11 11 11 11 11 11 10 10 10 10 10 10 10 11 12 13 14 16 17 18 18 18 17 16 16 15 16 16 16 15 13 12 13 14 14 14 13 12 12 14 16 18 18 17 16 15 16 17 20 22 25 27 27 27 26 24 24 23 23 23 22 22 22 22 21 21 21 21 20 19 19 19
7 7 8 8 8 8 7 7 6 6 5 5 4 4 4 4 5 5 4 4 4 3 3 5 7 10 11 12 12 12 12 13 14 14 14 14 13 13 12 11 11 11 11 11 12 13 14 15 15 15 15 16 17 18 18 19 19 20 18 16 14 12 13 15 18 19 16 15 14 15 17 18 18 18 17 17 18 19 21 24 26 28 29 29 28 26 25 24 24 23 23 22 22 22 21 21 20 20 21 21 22 22 22
7 7 7 8 7 7 6 6 5 5 4 4 3 3 4 4 5 6 6 6 6 7 8 9 10 11 12 13 13 12 11 11 12 12 12 12 12 12 11 11 11 12 12 12 13 13 14 13 12 12 13 14 17 19 21 22 22 21 18 14 12 13 16 19 21 20 18 17 17 18 18 18 17 17 18 19 21 23 25 28 30 31 31 29 27 26 25 24 24 23 23 22 22 21 20 19 18 18 18 18 18 18 18
7 7 7 7 6 6 5 4 4 4 4 3 3 4 5 6 6 7 7 7 8 8 9 9 9 9 10 10 10 10 9 9 9 10 10 10 11 11 12 12 12 12 13 13 13 13 12 11 10 11 13 15 18 21 22 23 22 19 16 14 14 16 19 20 20 19 18 18 18 18 18 17 17 18 20 22 25 27 29 31 32 32 30 28 26 25 25 24 24 23 23 22 21 20 20 19 18 18 17 16 16 16 16
7 7 6 6 5 4 4 4 4 4 4 4 5 6 7 7 7 7 7 7 8 8 8 8 8 8 8 8 8 8 8 8 9 10 10 11 12 12 13 13 13 13 13 13 12 10 9 9 10 11 13 16 17 19 19 19 18 16 15 15 16 18 18 18 17 16 17 17 17 16 17 18 19 21 24 26 28 30 32 33 32 30 28 26 25 24 24 23 22 22 21 20 20 19 18 18 17 16 16 15 15 15 16
7 6 5 4 4 4 4 5 5 5 6 7 7 8 8 8 7 7 7 8 8 8 8 8 8 8 8 8 8 8 8 9 10 10 12 12 13 14 14 14 13 13 11 9 7 5 6 8 11 13 13 14 14 14 14 14 14 15 15 16 16 16 15 15 14 15 15 15 15 14 16 19 22 24 27 30 31 32 32 31 30 27 26 24 24 23 22 20 19 18 17 16 16 15 14 14 13 13 12 12 12 12 13
6 5 5 5 5 6 6 6 7 8 8 8 8 8 8 7 7 7 7 8 8 8 9 9 8 8 8 8 8 9 9 10 10 11 12 13 13 13 13 12 11 9 6 3 1 1 6 11 15 16 15 14 13 12 12 13 13 14 15 15 15 14 13 13 13 13 12 12 12 14 17 21 25 28 30 32 33 32 30 28 26 25 24 22 21 20 18 17 15 14 13 12 11 10 10 9 9 9 9 9 9 9 9
6 6 6 6 7 7 8 9 9 9 9 8 8 7 7 7 7 7 8 8 9 9 9 9 9 8 8 8 9 9 9 10 11 12 12 13 13 12 11 9 7 4 1 -1 -0 4 13 18 20 19 18 16 16 15 15 15 15 16 16 15 14 13 12 11 11 11 10 10 12 15 20 25 28 30 32 32 31 29 27 25 23 22 20 19 17 15 13 12 10 9 8 7 7 6 6 6 7 8 8 9 9 10 10
7 7 7 8 9 10 10 10 10 9 8 7 7 6 6 6 6 7 8 9 9 10 9 9 9 8 8 8 9 9 10 11 12 12 12 12 11 10 8 6 4 2 1 2 6 12 17 19 19 18 18 18 18 18 18 18 18 18 17 15 14 13 12 11 10 10 10 11 14 19 24 28 31 32 31 29 27 24 22 21 19 17 15 13 11 9 8 7 7 6 6 6 6 7 8 9 10 11 12 13 13 13 13
8 8 9 10 11 11 10 9 8 7 6 6 5 5 5 6 6 7 8 9 9 9 9 8 8 8 8 9 9 10 11 11 12 12 12 11 10 8 7 6 4 3 4 7 10 13 13 12 11 11 12 14 16 18 20 20 20 19 17 15 13 12 11 10 10 10 12 15 19 24 28 31 32 32 28 25 22 20 18 16 14 12 10 8 7 7 7 7 7 7 7 8 8 10 11 12 13 13 13 13 13 12 12
9 10 11 11 10 10 9 8 6 6 5 5 5 5 6 6 7 8 8 8 9 9 8 8 8 8 9 10 10 11 12 12 12 12 11 10 9 8 7 6 5 5 6 6 6 5 4 3 3 3 4 6 9 13 19 22 23 21 18 15 13 12 11 11 12 14 17 20 24 28 31 32 31 28 25 21 18 15 13 11 10 8 8 8 8 8 8 8 8 8 8 9 10 11 11 11 11 11 10 10 10 10 10
10 11 10 10 9 8 7 6 6 5 5 5 5 6 7 7 8 8 8 8 8 8 8 8 8 9 11 12 12 13 13 12 12 11 10 9 8 7 7 6 5 4 2 -0 -2 -3 -2 -0 0 0 1 2 5 8 15 21 24 25 21 17 14 13 13 14 16 19 22 24 27 31 32 31 28 24 20 17 14 12 10 9 9 9 9 10 10 9 9 9 8 8 9 9 10 10 10 10 10 10 10 10 10 11 11
10 10 9 8 8 7 6 6 6 6 6 6 7 8 8 8 7 7 7 7 8 8 8 9 10 11 13 14 14 14 14 13 12 10 8 7 6 6 5 4 2 -1 -5 -6 -6 -3 0 2 3 3 3 4 6 8 12 19 25 28 25 21 17 16 17 18 20 22 25 27 29 31 31 28 24 20 16 14 12 10 10 10 10 10 10 10 9 9 8 8 8 8 8 8 9 9 9 9 10 10 11 11 12 12 13
10 9 8 7 6 6 6 7 7 7 7 7 8 8 7 7 7 7 7 8 8 9 10 12 13 14 16 16 16 15 14 13 11 8 6 5 3 2 1 -1 -4 -7 -8 -6 -1 4 7 8 8 7 7 8 10 12 14 19 25 29 27 23 20 19 20 21 23 25 27 28 29 31 28 24 20 16 14 12 11 10 10 10 10 10 10 9 9 8 8 7 7 7 8 8 8 8 9 10 10 11 12 12 13 13 13
8 7 6 6 6 6 7 7 8 8 8 8 7 6 6 6 7 8 9 10 11 12 13 15 16 17 17 17 16 15 14 12 9 6 4 2 1 -2 -4 -6 -8 -8 -4 1 7 11 12 11 9 8 10 12 14 16 18 21 25 28 27 24 21 20 22 23 25 27 28 29 29 28 24 20 16 14 12 11 11 10 10 10 10 9 8 8 7 6 6 6 6 7 7 8 8 9 10 11 12 12 13 13 14 14 14
7 6 6 6 6 7 8 8 9 9 8 7 6 5 5 7 10 12 13 13 14 14 16 17 17 18 17 16 16 15 13 10 8 6 4 2 -1 -5 -8 -9 -7 -4 2 6 8 8 7 5 5 6 10 13 15 18 20 23 25 26 25 23 22 22 24 26 27 29 29 28 27 24 20 16 13 12 11 10 10 10 9 8 8 7 6 6 6 6 6 6 7 7 8 9 10 11 12 13 13 14 14 14 14 15 15
6 6 6 6 7 7 8 9 9 8 8 6 6 4 6 10 14 17 17 16 16 16 17 17 17 17 17 16 15 15 13 10 8 8 6 3 -0 -4 -6 -7 -6 -1 2 3 2 2 1 2 3 7 11 14 18 20 23 24 24 24 23 23 23 24 26 28 29 30 28 26 22 19 16 13 11 10 10 9 9 8 8 7 6 6 5 6 6 6 7 8 8 9 10 11 12 13 13 14 14 15 15 15 15 15 15
6 6 6 7 7 8 9 9 9 8 7 6 6 6 8 12 16 20 19 17 16 16 16 16 16 17 17 16 16 15 14 12 11 9 8 6 4 1 -2 -4 -5 -2 -1 -1 -0 1 2 3 6 10 15 19 22 24 25 24 23 22 22 24 25 27 28 30 30 29 26 22 18 14 12 11 10 9 9 8 7 7 6 6 6 6 6 7 7 8 8 9 10 11 12 13 14 14 14 15 15 15 15 15 14 14 14
6 6 7 8 8 9 9 9 8 7 6 6 7 8 11 14 17 19 18 16 15 13 13 14 15 16 16 16 16 16 15 14 13 12 10 8 7 5 1 -2 -4 -3 -2 0 2 3 4 7 10 15 20 22 25 27 27 25 23 22 24 25 27 29 31 31 30 26 21 17 14 11 10 9 8 8 7 7 6 6 5 5 6 7 7 8 8 9 10 11 12 12 13 14 14 14 15 15 14 14 14 14 14 13 13
7 7 8 9 9 10 9 8 8 6 6 7 9 12 14 16 16 16 16 15 13 11 11 12 13 13 14 14 14 14 14 14 14 13 11 8 7 5 2 -0 -1 0 2 3 3 4 7 11 15 19 22 25 27 29 28 26 24 24 26 28 30 32 32 30 26 21 17 13 11 9 8 7 7 6 6 5 5 5 6 6 7 8 8 9 10 10 11 12 13 13 14 14 14 14 14 14 14 14 14 13 13 13 12
7 8 9 9 10 10 9 9 8 7 8 10 12 14 15 15 15 15 14 12 11 10 10 10 10 11 10 10 10 10 12 13 14 13 10 7 5 4 3 4 4 4 3 3 4 7 11 15 18 22 25 28 30 30 28 27 26 27 29 31 32 31 29 26 22 17 13 10 8 8 7 6 6 6 5 5 5 6 7 7 8 8 9 10 10 11 12 12 13 14 14 14 14 14 14 14 13 13 13 12 12 12 11
7 7 8 8 9 10 10 9 9 9 10 12 14 14 13 13 14 14 12 11 10 9 8 8 8 8 8 8 8 9 11 13 13 12 9 7 6 6 6 5 4 3 2 3 6 10 13 17 21 25 30 32 33 31 29 28 28 30 31 32 31 29 26 21 17 13 10 8 7 6 6 6 6 6 6 6 6 6 7 8 8 9 10 10 11 12 12 13 13 14 14 14 14 13 13 13 12 12 12 11 11 11 10
6 6 6 8 9 10 10 10 10 11 12 13 14 14 13 13 14 14 12 10 9 8 7 6 7 8 8 8 8 10 11 11 11 10 9 8 8 7 5 3 1 1 2 5 8 12 16 21 27 33 36 36 34 32 30 30 30 31 32 31 29 25 21 16 12 9 7 6 6 5 5 5 5 6 6 6 6 7 7 8 9 9 10 11 12 12 13 13 13 13 13 13 13 12 12 12 11 11 11 10 10 10 10
6 6 7 9 10 12 12 12 11 11 12 13 14 16 15 14 14 15 13 10 7 6 6 7 8 8 8 8 8 7 7 7 7 8 7 6 5 3 2 1 2 2 5 8 12 17 23 29 35 39 39 37 34 31 30 30 30 29 28 26 23 19 14 11 8 6 6 5 4 4 4 5 5 6 6 6 7 7 8 9 10 10 11 12 12 12 13 13 13 12 12 12 12 11 11 11 10 10 10 10 10 10 10
Height
5807 5806 5806 5805 5804 5804 5803 5802 5801 5800 5799 5798 5796 5795 5794 5793 5792 5791 5789 5788 5787 5785 5784 5782 5781 5779 5778 5776 5775 5773 5772 5770 5769 5768 5766 5765 5763 5762 5760 5759 5757 5756 5755 5754 5753 5752 5751 5749 5748 5747 5745 5743 5741 5740 5738 5736 5734 5733 5731 5729 5728 5727 5726 5724 5723 5722 5720 5719 5718 5716 5715 5713 5712 5710 5709 5707 5706 5704 5703 5701 5699 5698 5697 5696 5695 5694 5693 5691 5690 5689 5688 5687 5686 5685 5684 5683 5682 5681 5680 5679 5678 5678 5677
5806 5805 5804 5804 5803 5802 5802 5800 5799 5798 5797 5796 5795 5794 5793 5792 5791 5789 5788 5786 5785 5783 5782 5781 5779 5777 5776 5774 5773 5771 5769 5768 5766 5765 5763 5762 5760 5759 5758 5756 5755 5754 5753 5752 5750 5749 5748 5747 5746 5744 5743 5741 5739 5738 5736 5734 5733 5731 5729 5727 5725 5724 5723 5721 5720 5718 5717 5716 5714 5713 5712 5710 5708 5707 5705 5703 5702 5700 5699 5697 5696 5694 5693 5692 5691 5690 5688 5687 5686 5685 5684 5683 5682 5680 5679 5678 5677 5676 5675 5674 5673 5672 5671
5804 5804 5803 5802 5802 5801 5800 5799 5798 5797 5795 5794 5793 5792 5791 5790 5789 5788 5786 5784 5783 5781 5780 5778 5777 5775 5773 5771 5770 5768 5767 5765 5763 5762 5761 5759 5758 5756 5755 5754 5753 5751 5750 5748 5747 5746 5745 5744 5743 5742 5740 5739 5737 5735 5734 5733 5731 5729 5727 5725 5723 5721 5720 5718 5717 5715 5714 5713 5711 5710 5708 5707 5705 5703 5702 5700 5698 5697 5695 5693 5692 5691 5689 5688 5687 5686 5685 5683 5683 5681 5680 5679 5678 5676 5675 5673 5673 5671 5670 5669 5668 5667 5666
5803 5802 5801 5801 5800 5799 5798 5797 5796 5795 5794 5793 5792 5791 5790 5788 5787 5786 5784 5783 5781 5779 5778 5776 5774 5773 5771 5769 5767 5765 5764 5762 5761 5759 5758 5756 5755 5754 5753 5751 5750 5748 5747 5745 5744 5743 5741 5740 5739 5738 5737 5735 5734 5732 5731 5730 5728 5726 5725 5723 5721 5719 5717 5716 5714 5713 5711 5709 5708 5706 5705 5703 5702 5700 5698 5697 5695 5694 5692 5690 5689 5687 5686 5685 5683 5683 5681 5680 5679 5678 5676 5675 5674 5673 5671 5670 5669 5668 5666 5664 5663 5662 5661
5801 5800 5799 5798 5798 5797 5796 5795 5794 5793 5792 5791 5790 5789 5788 5787 5785 5784 5782 5781 5779 5778 5776 5774 5773 5770 5768 5766 5764 5763 5761 5759 5758 5757 5755 5754 5753 5751 5750 5748 5747 5745 5743 5742 5740 5739 5738 5737 5735 5734 5733 5731 5730 5729 5727 5726 5725 5723 5722 5720 5718 5716 5715 5713 5711 5709 5708 5706 5704 5703 5701 5700 5698 5697 5695 5694 5692 5691 5689 5687 5686 5684 5682 5681 5680 5679 5678 5676 5675 5674 5673 5671 5670 5669 5668 5666 5665 5664 5663 5661 5658 5657 5656
5799 5798 5797 5797 5796 5795 5794 5793 5792 5791 5791 5789 5788 5787 5786 5785 5783 5782 5780 5779 5777 5776 5774 5772 5771 5769 5767 5764 5762 5760 5759 5757 5755 5754 5753 5751 5750 5748 5747 5745 5743 5742 5740 5738 5737 5735 5734 5733 5731 5730 5728 5727 5726 5724 5723 5722 5721 5719 5718 5716 5714 5713 5711 5709 5708 5706 5704 5702 5700 5699 5697 5696 5694 5693 5692 5690 5689 5688 5686 5684 5683 5681 5679 5677 5676 5675 5674 5672 5671 5670 5668 5667 5666 5665 5663 5662 5661 5659 5659 5658 5655 5653 5652
5797 5796 5795 5794 5794 5793 5792 5791 5790 5789 5788 5787 5786 5785 5784 5783 5781 5780 5778 5777 5775 5773 5772 5770 5768 5766 5764 5762 5760 5758 5756 5755 5753 5752 5750 5749 5747 5746 5744 5742 5741 5739 5737 5735 5733 5732 5730 5728 5727 5726 5724 5723 5721 5720 5718 5717 5716 5714 5713 5711 5710 5708 5706 5705 5703 5702 5700 5698 5697 5695 5693 5692 5690 5689 5687 5686 5684 5683 5682 5680 5679 5677 5675 5673 5672 5671 5669 5668 5667 5665 5664 5663 5661 5660 5659 5658 5657 5655 5654 5654 5652 5650 5648
5795 5794 5793 5792 5791 5790 5789 5789 5788 5787 5786 5785 5784 5783 5781 5780 5778 5777 5776 5774 5772 5771 5769 5767 5765 5763 5761 5759 5758 5756 5754 5752 5751 5749 5748 5746 5744 5743 5741 5739 5738 5736 5734 5733 5731 5729 5727 5725 5723 5722 5720 5719 5717 5716 5714 5713 5711 5710 5708 5707 5705 5703 5702 5700 5699 5697 5696 5694 5693 5691 5689 5688 5686 5684 5683 5681 5680 5678 5677 5675 5674 5673 5671 5669 5668 5666 5665 5663 5662 5660 5659 5658 5656 5655 5654 5653 5652 5651 5649 5648 5648 5646 5643
5793 5792 5791 5790 5789 5788 5787 5786 5786 5785 5783 5783 5781 5780 5779 5778 5776 5774 5773 5771 5769 5768 5766 5764 5762 5760 5758 5756 5754 5753 5751 5749 5748 5746 5744 5743 5741 5740 5738 5736 5735 5733 5731 5729 5728 5726 5724 5722 5720 5718 5717 5715 5714 5712 5710 5709 5707 5706 5704 5703 5701 5699 5698 5696 5694 5693 5691 5689 5688 5686 5685 5683 5681 5680 5678 5676 5674 5673 5672 5670 5668 5667 5666 5664 5663 5661 5660 5658 5657 5655 5653 5652 5651 5649 5648 5647 5647 5646 5644 5643 5642 5641 5639
5791 5790 5789 5788 5787 5786 5785 5784 5783 5782 5781 5780 5779 5778 5776 5775 5773 5772 5770 5768 5766 5765 5763 5761 5759 5757 5755 5753 5751 5749 5747 5746 5744 5743 5741 5739 5738 5736 5735 5733 5731 5729 5728 5726 5724 5722 5721 5719 5717 5715 5713 5711 5710 5708 5707 5705 5703 5702 5700 5698 5697 5695 5693 5691 5690 5688 5687 5685 5683 5681 5679 5678 5676 5674 5673 5671 5669 5667 5666 5664 5663 5661 5660 5658 5657 5655 5654 5653 5652 5650 5648 5647 5645 5644 5642 5641 5640 5640 5639 5638 5636 5635 5634
5789 5788 5787 5786 5785 5783 5783 5782 5781 5780 5778 5777 5776 5775 5773 5772 5770 5768 5767 5765 5763 5762 5760 5758 5756 5754 5752 5750 5748 5746 5743 5742 5740 5739 5738 5736 5734 5733 5731 5729 5727 5725 5723 5721 5719 5718 5716 5714 5713 5711 5709 5707 5706 5704 5702 5700 5698 5696 5695 5693 5692 5690 5688 5686 5685 5683 5682 5680 5678 5676 5674 5673 5671 5669 5667 5665 5663 5661 5659 5658 5657 5655 5653 5652 5650 5648 5647 5646 5645 5644 5642 5641 5639 5638 5636 5635 5634 5634 5633 5632 5630 5629 5628
5787 5786 5784 5783 5782 5781 5780 5779 5778 5777 5776 5774 5773 5772 5770 5768 5767 5765 5764 5762 5760 5758 5757 5754 5753 5751 5748 5746 5744 5742 5740 5738 5736 5735 5733 5732 5730 5728 5727 5725 5723 5721 5718 5716 5714 5712 5710 5709 5708 5707 5705 5703 5701 5699 5697 5695 5693 5691 5689 5688 5686 5684 5682 5680 5679 5677 5676 5674 5673 5671 5669 5667 5665 5663 5661 5659 5657 5655 5653 5651 5649 5648 5647 5644 5643 5641 5640 5639 5638 5637 5635 5634 5633 5631 5630 5628 5628 5627 5626 5625 5624 5623 5622
5784 5783 5782 5781 5780 5779 5778 5777 5775 5774 5773 5771 5770 5768 5767 5765 5763 5762 5761 5759 5757 5755 5753 5751 5749 5747 5745 5743 5741 5738 5736 5734 5732 5731 5729 5728 5726 5724 5722 5720 5718 5716 5713 5711 5709 5707 5705 5703 5702 5701 5699 5697 5695 5693 5692 5690 5688 5686 5684 5682 5680 5679 5677 5675 5673 5671 5669 5668 5666 5664 5662 5660 5658 5657 5655 5653 5651 5649 5647 5645 5643 5641 5640 5638 5636 5634 5633 5632 5630 5629 5628 5627 5626 5624 5623 5622 5621 5620 5619 5618 5618 5616 5615
5782 5781 5780 5778 5777 5776 5775 5773 5772 5771 5769 5768 5767 5765 5763 5762 5760 5759 5758 5756 5754 5752 5750 5748 5745 5743 5741 5739 5737 5734 5732 5730 5728 5726 5725 5723 5721 5719 5717 5715 5713 5710 5708 5706 5703 5701 5699 5698 5696 5695 5693 5691 5689 5688 5686 5684 5683 5681 5679 5677 5675 5673 5672 5669 5667 5665 5663 5661 5660 5658 5656 5654 5653 5650 5648 5647 5645 5643 5641 5639 5638 5636 5634 5632 5630 5628 5627 5625 5624 5623 5621 5620 5619 5618 5616 5615 5614 5613 5613 5612 5611 5610 5609
5779 5778 5777 5776 5774 5773 5772 5770 5769 5768 5766 5765 5763 5762 5760 5759 5758 5756 5754 5752 5750 5748 5746 5744 5741 5739 5737 5734 5732 5730 5728 5726 5724 5722 5720 5719 5717 5714 5712 5710 5708 5705 5703 5701 5698 5697 5694 5693 5691 5689 5688 5686 5684 5683 5681 5679 5677 5676 5674 5672 5670 5668 5666 5664 5662 5660 5658 5656 5654 5653 5651 5649 5647 5645 5643 5641 5639 5638 5636 5634 5633 5631 5628 5626 5624 5622 5621 5619 5617 5616 5615 5613 5612 5611 5610 5608 5608 5606 5606 5605 5604 5603 5603
5776 5775 5774 5773 5771 5770 5768 5767 5765 5764 5763 5761 5760 5758 5757 5756 5754 5752 5750 5748 5746 5744 5741 5739 5737 5735 5732 5730 5728 5726 5724 5722 5720 5718 5716 5714 5712 5710 5708 5705 5703 5701 5698 5696 5694 5692 5690 5688 5686 5685 5683 5681 5679 5678 5676 5674 5672 5670 5669 5667 5665 5663 5661 5659 5658 5656 5654 5652 5650 5648 5647 5645 5643 5641 5638 5636 5634 5632 5630 5629 5627 5625 5623 5621 5619 5617 5615 5613 5611 5610 5608 5607 5606 5605 5604 5603 5601 5600 5599 5598 5597 5597 5596
5773 5772 5771 5769 5768 5766 5765 5763 5762 5760 5759 5758 5757 5755 5753 5752 5750 5748 5746 5743 5741 5739 5737 5735 5733 5730 5728 5726 5724 5722 5720 5718 5717 5714 5712 5710 5708 5706 5703 5701 5699 5696 5694 5692 5690 5688 5686 5684 5682 5681 5679 5677 5675 5673 5671 5669 5667 5665 5664 5662 5660 5658 5657 5655 5653 5651 5649 5648 5646 5644 5642 5640 5639 5637 5634 5632 5629 5627 5625 5623 5622 5620 5618 5616 5614 5612 5610 5608 5606 5604 5603 5601 5600 5599 5598 5597 5595 5594 5592 5591 5591 5590 5589
5770 5769 5768 5766 5764 5763 5761 5760 5758 5757 5756 5755 5753 5751 5749 5748 5745 5743 5741 5739 5737 5735 5733 5731 5729 5727 5725 5723 5721 5719 5717 5715 5713 5711 5708 5706 5704 5702 5700 5697 5695 5692 5690 5688 5686 5684 5682 5680 5678 5676 5674 5673 5671 5669 5667 5664 5663 5661 5659 5657 5655 5653 5652 5650 5648 5646 5644 5643 5641 5640 5638 5636 5634 5632 5630 5628 5625 5622 5620 5618 5616 5614 5613 5611 5608 5606 5604 5602 5600 5598 5597 5596 5594 5593 5592 5591 5589 5588 5587 5585 5585 5584 5583
5767 5766 5764 5763 5761 5760 5758 5757 5755 5754 5752 5751 5749 5747 5745 5743 5741 5739 5737 5735 5733 5732 5730 5728 5725 5723 5721 5719 5718 5715 5713 5711 5709 5707 5705 5703 5701 5698 5696 5694 5691 5689 5687 5684 5682 5680 5678 5676 5674 5672 5670 5668 5666 5664 5662 5660 5658 5656 5654 5653 5651 5649 5647 5645 5643 5641 5639 5638 5636 5635 5633 5632 5629 5627 5625 5623 5620 5618 5615 5613 5611 5609 5607 5605 5603 5601 5599 5597 5595 5593 5591 5590 5589 5587 5586 5585 5583 5582 5581 5580 5579 5578 5577
5764 5763 5761 5760 5758 5757 5755 5753 5752 5750 5749 5747 5745 5743 5742 5739 5738 5736 5734 5733 5731 5728 5726 5724 5722 5720 5718 5716 5714 5712 5710 5708 5706 5704 5702 5700 5698 5695 5693 5691 5688 5686 5683 5681 5679 5677 5675 5673 5670 5668 5666 5664 5662 5660 5658 5656 5654 5652 5650 5648 5646 5644 5642 5640 5638 5636 5634 5633 5631 5630 5628 5627 5624 5622 5620 5618 5615 5613 5610 5608 5606 5604 5602 5599 5597 5595 5593 5591 5589 5588 5586 5584 5583 5582 5580 5578 5578 5576 5575 5574 5573 5572 5571
5762 5760 5759 5757 5756 5754 5752 5751 5749 5747 5745 5743 5742 5740 5738 5736 5734 5733 5731 5729 5727 5724 5722 5720 5718 5717 5715 5713 5711 5709 5707 5705 5703 5701 5699 5697 5695 5692 5690 5688 5686 5683 5681 5678 5676 5673 5671 5669 5667 5664 5662 5660 5658 5656 5653 5651 5649 5647 5645 5643 5641 5639 5637 5635 5633 5631 5629 5628 5626 5624 5623 5621 5619 5617 5615 5612 5610 5608 5605 5603 5600 5598 5596 5594 5592 5590 5588 5586 5584 5582 5580 5579 5577 5576 5574 5573 5572 5570 5569 5568 5567 5566 5565
5759 5758 5757 5755 5753 5751 5749 5748 5745 5743 5742 5740 5738 5736 5734 5733 5731 5729 5727 5725 5723 5721 5719 5717 5715 5713 5712 5710 5708 5706 5703 5702 5699 5698 5695 5693 5691 5689 5687 5685 5683 5680 5678 5675 5673 5670 5668 5665 5663 5661 5658 5656 5653 5652 5649 5646 5644 5642 5639 5637 5636 5633 5632 5630 5628 5626 5624 5622 5620 5618 5617 5615 5613 5611 5609 5607 5604 5602 5600 5597 5595 5593 5591 5588 5586 5584 5582 5580 5578 5577 5575 5573 5572 5570 5568 5567 5566 5565 5563 5562 5561 5560 5559
5757 5756 5754 5752 5750 5748 5746 5744 5742 5740 5738 5736 5735 5733 5731 5729 5728 5726 5724 5722 5720 5718 5716 5714 5713 5711 5709 5707 5705 5703 5701 5699 5696 5694 5691 5689 5688 5686 5684 5682 5679 5677 5674 5672 5669 5667 5664 5662 5659 5657 5654 5652 5649 5647 5644 5642 5639 5637 5634 5632 5630 5628 5626 5624 5622 5620 5618 5616 5614 5613 5611 5608 5607 5605 5603 5601 5598 5596 5594 5592 5589 5587 5585 5583 5581 5578 5577 5575 5573 5571 5569 5567 5566 5564 5563 5561 5560 5559 5558 5557 5555 5554 5553
5755 5753 5752 5750 5748 5746 5743 5741 5739 5737 5735 5733 5731 5729 5728 5726 5724 5723 5721 5719 5718 5716 5714 5712 5710 5708 5707 5705 5703 5701 5698 5696 5693 5691 5688 5686 5684 5683 5680 5678 5675 5673 5670 5667 5665 5663 5660 5658 5655 5652 5650 5648 5645 5642 5640 5637 5635 5632 5629 5627 5624 5623 5620 5618 5616 5614 5612 5610 5608 5607 5604 5602 5600 5598 5597 5594 5593 5590 5588 5586 5584 5581 5579 5577 5575 5573 5571 5569 5567 5565 5563 5562 5560 5558 5557 5556 5554 5553 5552 5551 5549 5548 5547
5753 5751 5749 5747 5745 5743 5741 5739 5737 5734 5733 5730 5728 5727 5725 5723 5722 5720 5718 5717 5715 5713 5711 5709 5708 5706 5704 5702 5700 5698 5695 5693 5691 5689 5686 5684 5682 5679 5677 5675 5672 5670 5667 5664 5661 5658 5656 5653 5651 5648 5646 5643 5641 5638 5636 5633 5630 5627 5624 5622 5619 5617 5614 5612 5610 5608 5606 5604 5602 5600 5598 5596 5593 5592 5590 5588 5586 5584 5582 5580 5578 5575 5573 5571 5569 5567 5565 5563 5561 5560 5558 5556 5554 5553 5551 5550 5548 5547 5546 5545 5544 5543 5542
5749 5748 5746 5744 5742 5740 5738 5737 5734 5733 5730 5728 5726 5724 5723 5721 5719 5718 5716 5714 5713 5711 5709 5707 5705 5703 5701 5699 5697 5694 5692 5690 5688 5687 5684 5682 5679 5677 5674 5672 5669 5666 5663 5661 5658 5655 5652 5649 5647 5644 5641 5639 5637 5634 5632 5628 5625 5623 5620 5617 5614 5611 5609 5607 5604 5602 5600 5598 5596 5593 5592 5590 5587 5585 5583 5581 5579 5577 5575 5573 5572 5569 5568 5566 5563 5562 5560 5558 5556 5554 5552 5551 5549 5548 5546 5544 5543 5542 5541 5540 5539 5537 5536
5746 5745 5743 5741 5740 5738 5736 5734 5732 5730 5728 5726 5724 5723 5721 5719 5717 5715 5713 5712 5710 5708 5706 5704 5702 5699 5698 5695 5693 5691 5689 5688 5686 5684 5682 5679 5676 5673 5671 5668 5665 5663 5660 5657 5654 5651 5648 5645 5643 5640 5637 5634 5632 5629 5627 5624 5621 5618 5615 5612 5608 5606 5603 5601 5598 5596 5594 5592 5590 5587 5585 5583 5581 5579 5577 5574 5573 5571 5569 5567 5565 5563 5562 5560 5558 5556 5554 5552 5550 5548 5547 5545 5543 5542 5541 5539 5538 5536 5535 5534 5533 5531 5530
5744 5742 5741 5739 5737 5735 5733 5732 5729 5728 5726 5724 5722 5720 5718 5716 5714 5713 5711 5709 5707 5704 5703 5700 5698 5696 5694 5692 5690 5689 5688 5685 5683 5680 5677 5675 5672 5669 5666 5663 5661 5658 5656 5653 5650 5647 5644 5641 5638 5635 5633 5630 5627 5625 5622 5619 5616 5613 5609 5606 5603 5601 5598 5595 5593 5590 5588 5586 5584 5581 5579 5577 5575 5573 5571 5568 5567 5564 5563 5561 5559 5558 5555 5553 5552 5550 5548 5547 5545 5543 5541 5539 5538 5536 5535 5533 5532 5530 5529 5528 5527 5525 5524
5742 5740 5738 5737 5734 5733 5731 5729 5727 5725 5723 5721 5719 5718 5716 5713 5712 5709 5708 5705 5703 5701 5699 5697 5694 5692 5690 5689 5688 5686 5683 5681 5678 5675 5673 5670 5668 5665 5662 5659 5656 5654 5651 5648 5646 5643 5639 5636 5633 5631 5628 5625 5622 5620 5617 5614 5611 5608 5604 5601 5598 5595 5593 5590 5587 5585 5582 5580 5578 5576 5573 5571 5569 5567 5565 5563 5561 5558 5557 5555 5553 5551 5549 5548 5546 5544 5543 5541 5539 5538 5536 5534 5532 5531 5529 5527 5525 5523 5522 5521 5520 5518 5518
5740 5738 5736 5734 5732 5730 5728 5726 5724 5723 5721 5718 5717 5714 5713 5710 5708 5706 5704 5702 5699 5697 5695 5693 5691 5688 5687 5685 5683 5681 5679 5677 5674 5671 5668 5666 5663 5660 5657 5654 5652 5649 5646 5644 5641 5638 5635 5631 5628 5625 5623 5620 5617 5614 5612 5608 5605 5602 5598 5595 5592 5589 5587 5584 5582 5579 5577 5574 5572 5570 5568 5565 5563 5561 5559 5557 5555 5553 5551 5549 5547 5545 5543 5541 5539 5538 5536 5534 5533 5531 5530 5528 5526 5524 5523 5521 5519 5518 5517 5516 5514 5513 5513
5737 5735 5733 5731 5729 5728 5726 5723 5722 5720 5718 5716 5713 5711 5709 5707 5705 5703 5701 5698 5696 5693 5691 5689 5687 5685 5683 5681 5679 5677 5674 5672 5669 5666 5663 5660 5658 5655 5653 5650 5647 5644 5642 5638 5636 5633 5630 5627 5623 5620 5618 5615 5612 5609 5606 5603 5599 5596 5593 5589 5586 5584 5581 5578 5576 5574 5571 5568 5566 5564 5562 5559 5557 5555 5553 5551 5548 5547 5544 5543 5541 5539 5537 5535 5533 5531 5529 5528 5526 5524 5523 5521 5519 5518 5516 5514 5513 5512 5511 5510 5509 5509 5508
5735 5733 5731 5729 5727 5725 5723 5721 5718 5716 5714 5712 5710 5708 5706 5703 5701 5699 5697 5694 5692 5690 5687 5685 5683 5681 5679 5677 5675 5672 5669 5667 5664 5661 5658 5656 5653 5651 5648 5645 5643 5640 5637 5633 5630 5627 5624 5621 5618 5615 5613 5610 5607 5604 5601 5598 5594 5590 5587 5584 5581 5578 5575 5573 5570 5568 5565 5563 5560 5558 5556 5553 5551 5549 5547 5544 5542 5540 5538 5536 5534 5532 5530 5528 5526 5524 5522 5520 5518 5517 5515 5514 5512 5511 5510 5508 5507 5506 5505 5504 5504 5503 5503
5732 5730 5728 5726 5723 5722 5719 5717 5715 5713 5711 5708 5706 5704 5702 5700 5698 5695 5693 5691 5688 5686 5684 5682 5679 5677 5675 5673 5670 5667 5664 5662 5659 5657 5654 5652 5649 5647 5644 5641 5638 5634 5631 5628 5625 5623 5620 5617 5614 5610 5608 5604 5601 5598 5595 5592 5589 5585 5581 5578 5575 5572 5569 5567 5564 5562 5559 5557 5555 5552 5550 5547 5545 5543 5540 5538 5535 5533 5531 5529 5527 5525 5523 5521 5519 5517 5515 5513 5511 5510 5508 5507 5505 5504 5503 5501 5500 5500 5499 5498 5498 5498 5497
5728 5726 5724 5722 5720 5718 5716 5714 5711 5709 5707 5705 5703 5701 5698 5696 5694 5692 5689 5687 5685 5682 5680 5678 5676 5673 5670 5668 5666 5663 5660 5658 5656 5653 5651 5648 5645 5642 5639 5635 5632 5629 5626 5623 5620 5618 5615 5612 5609 5606 5602 5599 5596 5593 5589 5586 5583 5579 5576 5572 5569 5566 5563 5560 5558 5556 5553 5551 5548 5546 5543 5541 5539 5536 5534 5531 5529 5527 5524 5522 5520 5518 5516 5514 5512 5510 5508 5506 5504 5503 5501 5500 5498 5497 5496 5495 5494 5493 5493 5493 5492 5492 5491
5724 5723 5720 5718 5716 5714 5712 5710 5708 5705 5703 5701 5699 5697 5694 5692 5690 5688 5685 5683 5681 5678 5676 5674 5672 5669 5667 5664 5661 5659 5657 5654 5652 5649 5646 5643 5640 5637 5633 5630 5627 5624 5621 5618 5615 5612 5609 5607 5604 5601 5597 5594 5591 5588 5584 5580 5577 5573 5570 5566 5563 5560 5557 5554 5552 5549 5547 5544 5542 5539 5537 5534 5532 5530 5527 5525 5522 5520 5518 5515 5513 5511 5509 5507 5505 5503 5501 5499 5498 5496 5495 5493 5492 5491 5490 5489 5488 5487 5487 5486 5485 5485 5484
5721 5718 5717 5714 5712 5710 5708 5706 5704 5702 5699 5697 5695 5693 5691 5688 5686 5684 5682 5679 5677 5674 5672 5670 5667 5665 5662 5660 5657 5655 5652 5649 5646 5644 5640 5638 5635 5632 5629 5626 5623 5620 5616 5613 5610 5607 5604 5601 5598 5595 5592 5588 5585 5582 5578 5575 5571 5568 5564 5561 5557 5554 5551 5548 5546 5543 5541 5538 5535 5533 5530 5528 5525 5523 5520 5518 5515 5513 5511 5508 5506 5504 5502 5500 5498 5496 5494 5493 5491 5490 5488 5487 5486 5485 5484 5483 5482 5481 5481 5480 5479 5478 5478
5717 5715 5713 5711 5709 5707 5705 5703 5700 5698 5696 5694 5691 5689 5687 5685 5683 5680 5678 5675 5673 5670 5668 5665 5662 5660 5657 5655 5652 5650 5647 5643 5641 5638 5636 5633 5630 5627 5624 5621 5618 5615 5612 5608 5605 5602 5598 5596 5593 5590 5587 5583 5580 5576 5573 5569 5565 5562 5558 5555 5552 5548 5545 5542 5539 5536 5534 5531 5529 5526 5523 5521 5518 5516 5513 5511 5508 5506 5503 5501 5499 5497 5495 5493 5491 5489 5488 5487 5485 5484 5483 5481 5480 5479 5478 5477 5477 5476 5475 5474 5474 5473 5473
5713 5712 5709 5708 5705 5703 5701 5699 5697 5695 5692 5690 5688 5686 5683 5681 5679 5676 5674 5671 5668 5666 5663 5661 5658 5656 5653 5650 5647 5645 5642 5638 5636 5633 5631 5628 5625 5622 5619 5616 5613 5610 5607 5603 5600 5597 5593 5590 5588 5584 5581 5578 5574 5571 5567 5563 5559 5556 5552 5549 5546 5542 5538 5535 5532 5529 5527 5524 5522 5519 5517 5514 5512 5509 5507 5504 5501 5499 5497 5494 5492 5490 5488 5487 5485 5483 5482 5481 5479 5478 5477 5476 5475 5474 5473 5472 5471 5471 5470 5469 5469 5468 5468
5710 5708 5706 5704 5702 5700 5698 5696 5693 5691 5689 5687 5684 5682 5680 5678 5675 5673 5670 5667 5664 5662 5659 5657 5654 5651 5648 5645 5642 5639 5637 5633 5631 5628 5625 5622 5619 5617 5614 5611 5608 5604 5601 5598 5595 5592 5588 5585 5582 5579 5576 5572 5569 5565 5561 5558 5554 5550 5546 5543 5539 5536 5532 5529 5526 5523 5520 5518 5515 5513 5510 5508 5505 5503 5500 5498 5495 5492 5490 5488 5486 5484 5482 5481 5479 5478 5476 5475 5474 5473 5472 5471 5470 5469 5468 5467 5466 5466 5465 5464 5464 5463 5463
5708 5705 5703 5701 5699 5697 5694 5692 5690 5688 5686 5683 5681 5678 5676 5673 5671 5668 5666 5663 5660 5658 5655 5652 5649 5647 5643 5640 5637 5634 5631 5628 5625 5622 5619 5617 5614 5611 5608 5605 5602 5599 5596 5593 5590 5587 5583 5580 5577 5574 5570 5567 5563 5559 5556 5552 5548 5544 5540 5537 5533 5530 5526 5523 5520 5517 5514 5511 5509 5506 5504 5502 5499 5496 5494 5492 5489 5486 5484 5482 5480 5478 5477 5475 5474 5473 5471 5470 5469 5468 5467 5466 5465 5464 5464 5463 5462 5461 5460 5460 5459 5458 5458
5704 5702 5700 5698 5695 5693 5691 5689 5687 5684 5682 5680 5677 5674 5672 5669 5666 5663 5661 5658 5655 5653 5650 5647 5644 5641 5638 5635 5632 5628 5625 5622 5619 5617 5613 5611 5608 5605 5601 5598 5596 5593 5590 5587 5584 5581 5578 5575 5572 5568 5565 5561 5558 5554 5550 5546 5543 5539 5535 5531 5528 5524 5521 5517 5514 5511 5509 5506 5503 5500 5498 5496 5493 5490 5488 5486 5483 5481 5478 5476 5475 5473 5472 5470 5469 5468 5467 5466 5465 5464 5463 5462 5461 5460 5459 5458 5458 5457 5456 5455 5454 5453 5453
5702 5699 5697 5694 5692 5690 5688 5685 5683 5681 5678 5676 5673 5670 5667 5664 5662 5659 5656 5653 5651 5648 5645 5642 5639 5636 5633 5629 5626 5623 5620 5617 5613 5611 5608 5604 5601 5598 5595 5593 5590 5587 5584 5581 5578 5575 5572 5568 5565 5562 5559 5556 5552 5548 5545 5541 5538 5534 5530 5526 5523 5519 5516 5513 5509 5506 5503 5501 5498 5495 5492 5490 5488 5485 5482 5480 5478 5476 5473 5472 5470 5468 5467 5466 5465 5464 5463 5462 5461 5460 5459 5458 5457 5456 5455 5454 5453 5453 5452 5451 5450 5449 5448
5698 5696 5693 5691 5689 5686 5684 5682 5679 5677 5674 5671 5668 5665 5662 5659 5657 5654 5651 5648 5646 5643 5640 5637 5633 5630 5627 5623 5620 5617 5614 5611 5608 5605 5602 5598 5595 5593 5589 5587 5583 5581 5578 5575 5572 5568 5565 5562 5559 5556 5553 5549 5546 5543 5539 5536 5532 5528 5525 5521 5518 5514 5511 5508 5505 5501 5498 5495 5493 5490 5487 5484 5482 5480 5477 5475 5473 5471 5469 5467 5466 5464 5463 5462 5461 5460 5459 5458 5457 5456 5455 5454 5453 5452 5451 5450 5449 5448 5447 5446 5445 5444 5443
5695 5692 5690 5687 5685 5683 5680 5677 5674 5672 5669 5666 5663 5660 5657 5654 5652 5649 5646 5644 5641 5638 5635 5631 5628 5624 5621 5618 5614 5611 5608 5605 5602 5599 5596 5593 5589 5587 5584 5581 5578 5575 5572 5569 5566 5563 5559 5556 5553 5550 5547 5543 5540 5537 5533 5530 5527 5523 5520 5516 5513 5509 5506 5503 5500 5496 5493 5490 5487 5485 5482 5479 5476 5474 5472 5470 5468 5466 5464 5463 5462 5461 5459 5458 5457 5456 5455 5454 5453 5452 5451 5450 5449 5448 5447 5445 5444 5443 5442 5441 5440 5439 5438
5691 5688 5686 5683 5681 5678 5675 5673 5670 5667 5664 5661 5658 5655 5652 5649 5647 5644 5641 5638 5636 5633 5629 5625 5622 5618 5615 5612 5609 5606 5603 5600 5596 5593 5590 5587 5584 5581 5578 5576 5573 5569 5567 5564 5561 5558 5554 5551 5547 5544 5540 5537 5534 5530 5527 5524 5521 5517 5514 5511 5507 5504 5500 5497 5494 5491 5488 5485 5482 5479 5477 5474 5471 5469 5467 5465 5463 5462 5460 5459 5458 5457 5455 5454 5453 5452 5451 5450 5449 5448 5447 5445 5444 5443 5442 5441 5440 5438 5438 5436 5435 5434 5433
5686 5684 5681 5679 5676 5673 5671 5668 5665 5662 5659 5656 5653 5650 5648 5644 5642 5639 5636 5633 5630 5627 5623 5620 5616 5613 5610 5607 5603 5600 5597 5594 5591 5588 5585 5582 5579 5576 5573 5570 5568 5564 5561 5558 5555 5552 5548 5545 5541 5538 5534 5531 5528 5524 5521 5518 5515 5511 5508 5504 5501 5498 5494 5491 5488 5485 5482 5479 5476 5473 5471 5468 5466 5464 5462 5460 5459 5458 5456 5455 5454 5453 5452 5450 5449 5448 5447 5446 5444 5443 5442 5441 5439 5438 5437 5436 5435 5434 5433 5432 5430 5429 5428
5682 5679 5677 5674 5672 5669 5666 5663 5660 5658 5654 5652 5649 5646 5643 5640 5637 5634 5631 5628 5625 5621 5618 5615 5611 5608 5605 5601 5598 5595 5592 5589 5586 5583 5580 5577 5574 5571 5568 5565 5562 5559 5555 5552 5549 5545 5542 5538 5535 5532 5528 5525 5522 5518 5515 5512 5508 5505 5502 5498 5495 5492 5488 5485 5482 5479 5476 5473 5470 5468 5466 5463 5461 5459 5458 5456 5455 5454 5453 5451 5450 5449 5448 5446 5445 5444 5443 5441 5440 5439 5438 5436 5435 5434 5433 5431 5430 5429 5428 5427 5425 5424 5423
5677 5674 5672 5669 5667 5664 5661 5658 5656 5653 5650 5647 5644 5641 5638 5635 5632 5629 5626 5623 5619 5616 5613 5610 5607 5603 5600 5596 5593 5590 5587 5583 5581 5578 5575 5572 5569 5566 5563 5560 5557 5553 5550 5546 5542 5539 5536 5532 5529 5525 5522 5519 5515 5512 5508 5505 5502 5498 5495 5492 5489 5486 5483 5479 5476 5473 5471 5468 5465 5463 5461 5459 5457 5455 5454 5453 5451 5450 5448 5447 5446 5444 5443 5442 5440 5439 5438 5437 5436 5434 5433 5432 5430 5429 5428 5427 5425 5424 5423 5422 5420 5419 5418
5673 5670 5667 5665 5662 5659 5657 5653 5651 5648 5645 5642 5639 5636 5633 5630 5627 5624 5621 5618 5614 5611 5608 5605 5602 5598 5595 5591 5588 5585 5582 5578 5575 5573 5570 5567 5564 5561 5558 5554 5551 5547 5544 5540 5536 5533 5529 5526 5522 5519 5516 5512 5509 5505 5502 5498 5495 5492 5489 5486 5483 5479 5477 5473 5471 5468 5466 5463 5460 5458 5456 5455 5453 5452 5450 5449 5448 5446 5445 5443 5442 5440 5439 5438 5436 5435 5433 5432 5431 5430 5428 5427 5426 5425 5423 5422 5420 5419 5418 5417 5415 5414 5413
5668 5666 5663 5660 5657 5654 5652 5649 5646 5642 5639 5636 5633 5631 5628 5626 5623 5619 5616 5613 5610 5607 5603 5600 5597 5593 5590 5586 5583 5580 5577 5573 5570 5568 5564 5561 5558 5555 5552 5548 5545 5542 5538 5534 5531 5527 5523 5520 5516 5513 5509 5506 5502 5498 5495 5492 5488 5485 5483 5480 5477 5474 5471 5468 5466 5463 5461 5458 5456 5454 5452 5451 5449 5448 5447 5445 5444 5442 5441 5439 5438 5436 5434 5433 5432 5430 5429 5428 5427 5425 5424 5423 5421 5420 5418 5417 5416 5414 5413 5412 5410 5409 5408
5664 5661 5658 5655 5653 5650 5647 5644 5641 5638 5635 5632 5629 5626 5623 5621 5618 5615 5612 5608 5605 5602 5598 5595 5592 5588 5585 5581 5578 5575 5572 5568 5565 5562 5559 5556 5553 5550 5546 5543 5539 5536 5532 5529 5525 5522 5518 5514 5511 5507 5503 5499 5496 5492 5489 5485 5482 5479 5477 5474 5472 5469 5466 5463 5461 5458 5456 5454 5452 5450 5448 5447 5445 5444 5443 5441 5440 5438 5437 5435 5433 5432 5430 5429 5428 5426 5425 5423 5422 5421 5419 5418 5416 5415 5413 5412 5411 5409 5408 5407 5405 5404 5403
5660 5657 5653 5651 5648 5645 5642 5639 5636 5633 5630 5627 5624 5622 5619 5616 5613 5610 5607 5603 5600 5596 5593 5590 5587 5583 5580 5577 5573 5570 5567 5564 5561 5557 5554 5551 5548 5544 5541 5538 5534 5530 5527 5523 5520 5516 5512 5508 5505 5501 5497 5493 5490 5487 5483 5480 5477 5474 5472 5469 5466 5464 5461 5458 5456 5454 5452 5450 5448 5447 5445 5443 5442 5440 5438 5437 5435 5434 5433 5431 5429 5428 5426 5425 5423 5422 5420 5419 5418 5416 5414 5413 5411 5410 5408 5407 5406 5404 5403 5402 5400 5399 5398
5655 5652 5648 5646 5643 5640 5637 5634 5631 5628 5625 5623 5620 5617 5614 5611 5608 5604 5601 5598 5594 5591 5588 5585 5582 5578 5575 5572 5569 5566 5563 5559 5556 5553 5549 5546 5543 5539 5536 5532 5529 5525 5522 5518 5514 5510 5507 5503 5499 5496 5492 5488 5485 5481 5478 5475 5472 5469 5466 5464 5461 5459 5456 5454 5452 5450 5448 5447 5445 5443 5441 5439 5438 5436 5434 5433 5431 5430 5428 5427 5425 5423 5422 5420 5419 5417 5416 5414 5413 5411 5409 5408 5406 5405 5403 5402 5401 5399 5398 5397 5395 5394 5393
5650 5647 5644 5641 5638 5635 5632 5629 5626 5623 5620 5618 5615 5612 5609 5606 5603 5599 5596 5592 5589 5586 5583 5580 5577 5574 5571 5568 5564 5561 5558 5555 5552 5548 5544 5541 5538 5534 5531 5527 5524 5520 5516 5512 5508 5504 5501 5497 5493 5490 5487 5483 5480 5476 5473 5470 5467 5464 5461 5459 5456 5454 5452 5450 5448 5446 5444 5443 5441 5439 5438 5436 5434 5432 5430 5429 5427 5426 5424 5423 5421 5419 5418 5416 5414 5413 5411 5410 5408 5406 5405 5403 5401 5400 5398 5397 5396 5394 5393 5392 5391 5389 5388
5645 5643 5640 5637 5634 5631 5628 5624 5621 5618 5615 5612 5609 5607 5603 5600 5597 5594 5590 5587 5583 5580 5578 5574 5571 5569 5566 5563 5559 5556 5553 5550 5547 5543 5539 5536 5533 5529 5526 5522 5518 5514 5511 5507 5503 5499 5495 5491 5488 5484 5481 5478 5475 5471 5468 5465 5462 5459 5457 5454 5452 5450 5448 5446 5444 5442 5441 5439 5437 5436 5434 5432 5430 5428 5427 5425 5423 5422 5420 5418 5417 5415 5413 5411 5410 5408 5407 5405 5403 5402 5400 5398 5397 5395 5394 5393 5391 5390 5388 5387 5386 5385 5383
5641 5638 5635 5632 5629 5626 5623 5620 5617 5613 5610 5607 5604 5601 5598 5595 5592 5589 5585 5581 5578 5575 5572 5569 5566 5563 5560 5557 5554 5551 5548 5545 5542 5538 5535 5531 5527 5524 5520 5517 5513 5509 5505 5501 5497 5493 5489 5486 5482 5479 5476 5472 5469 5466 5463 5460 5458 5455 5452 5450 5448 5446 5443 5442 5440 5438 5437 5435 5433 5432 5430 5428 5427 5425 5423 5421 5419 5418 5416 5414 5412 5411 5409 5407 5405 5403 5402 5400 5398 5397 5395 5394 5392 5391 5389 5388 5387 5385 5384 5383 5382 5380 5379
5637 5634 5631 5628 5625 5622 5619 5615 5612 5608 5605 5602 5598 5595 5593 5589 5586 5583 5580 5576 5573 5569 5567 5563 5560 5558 5555 5552 5549 5546 5543 5540 5536 5533 5530 5526 5522 5518 5514 5511 5507 5503 5499 5495 5491 5487 5483 5480 5476 5473 5470 5466 5463 5460 5458 5455 5453 5450 5448 5446 5443 5442 5440 5438 5436 5435 5433 5432 5430 5428 5426 5424 5423 5421 5419 5417 5415 5413 5412 5410 5408 5406 5404 5402 5401 5399 5397 5396 5394 5393 5391 5389 5388 5386 5385 5383 5382 5381 5379 5378 5377 5375 5374
5633 5630 5626 5623 5620 5617 5614 5610 5607 5603 5600 5596 5593 5589 5586 5583 5580 5577 5574 5571 5567 5563 5561 5558 5555 5552 5550 5547 5544 5541 5538 5534 5531 5528 5524 5521 5517 5513 5509 5505 5501 5497 5493 5489 5485 5482 5478 5475 5471 5468 5464 5461 5458 5455 5453 5450 5448 5446 5444 5442 5440 5438 5436 5434 5433 5431 5429 5428 5426 5424 5423 5421 5418 5417 5415 5413 5411 5409 5407 5405 5403 5402 5400 5398 5396 5394 5393 5391 5389 5388 5386 5385 5383 5382 5380 5379 5378 5376 5375 5373 5372 5371 5369
5628 5625 5621 5618 5615 5612 5608 5605 5601 5598 5594 5591 5587 5583 5580 5577 5574 5571 5568 5565 5561 5558 5555 5553 5550 5548 5545 5542 5539 5536 5533 5529 5525 5522 5518 5515 5511 5507 5503 5499 5494 5491 5487 5483 5480 5476 5473 5469 5466 5462 5459 5456 5453 5450 5448 5446 5444 5442 5440 5438 5436 5434 5433 5431 5429 5428 5426 5424 5422 5420 5418 5416 5414 5413 5411 5408 5407 5405 5403 5401 5399 5397 5395 5393 5392 5390 5388 5387 5385 5383 5382 5380 5378 5377 5376 5374 5373 5372 5370 5369 5368 5366 5365